GFSFLT1_prec_cthk_024.txt.gz
RH
35 32 38 38 34 34 28 25 23 18 17 16 16 16 15 16 19 23 26 27 32 31 37 36 35 32 28 29 37 41 42 45 44
30 29 35 32 33 33 34 30 27 27 25 17 17 17 16 16 18 20 22 23 25 28 30 33 32 30 27 28 34 38 42 46 45
29 29 30 32 34 35 35 33 34 37 36 31 25 23 22 20 20 21 24 26 27 25 26 27 32 28 26 28 34 37 39 46 45
27 33 31 25 30 34 37 43 41 38 39 38 35 33 31 29 27 26 26 29 30 30 29 28 28 29 25 23 32 36 37 41 44
29 34 34 31 33 36 40 43 46 45 40 38 35 35 36 34 35 34 30 27 28 29 31 30 28 28 29 25 27 34 34 38 43
26 30 32 33 31 36 40 42 44 47 51 44 39 39 38 38 36 36 35 35 34 36 37 33 28 25 25 25 25 31 34 35 38
23 30 30 33 31 32 34 32 34 34 36 41 46 43 40 40 36 36 37 40 40 37 38 39 36 30 23 24 25 29 33 32 35
21 27 29 32 32 35 36 31 31 33 33 34 37 44 44 39 35 36 39 41 38 38 40 39 39 37 29 22 26 27 30 30 33
10 15 25 27 30 31 32 31 32 33 33 34 36 38 40 43 40 37 39 43 41 37 38 40 41 40 37 25 21 23 25 27 29
9 9 12 18 22 25 27 30 29 27 29 32 35 36 40 44 43 38 38 44 45 41 39 43 42 42 41 34 21 20 18 21 24
10 9 9 11 15 18 21 24 26 27 27 27 32 34 37 40 44 43 47 46 44 42 41 39 40 41 40 38 28 19 20 22 25
10 9 10 10 11 14 14 18 20 20 25 25 32 33 33 37 42 43 43 42 44 44 45 43 40 42 42 40 33 25 21 22 25
13 12 12 11 10 10 11 10 14 19 20 22 21 32 39 39 39 42 42 39 41 43 42 45 49 48 44 42 39 32 26 24 26
19 16 13 13 13 11 10 9 9 12 19 19 22 31 33 35 36 38 39 38 38 41 43 46 48 46 45 46 42 41 34 32 31
21 21 18 15 14 14 15 12 10 11 14 20 25 28 29 29 29 36 37 36 37 40 44 44 44 43 45 48 45 44 44 37 37
27 26 26 19 18 19 19 16 17 15 15 21 26 28 29 30 33 34 34 36 36 39 44 46 47 46 47 47 47 47 45 45 44
33 31 26 25 25 24 23 22 22 22 18 18 20 23 29 32 37 39 40 41 40 41 45 49 54 60 57 52 53 51 50 51 53
38 34 31 31 32 31 29 27 24 22 20 19 23 24 25 26 30 34 38 40 43 41 41 48 53 54 61 61 58 53 55 56 67
44 43 39 37 36 36 35 34 29 26 24 22 21 21 21 23 26 30 33 38 40 36 36 38 36 38 46 51 54 62 60 55 64
50 47 45 42 40 41 39 35 33 30 30 26 25 26 25 27 25 26 29 32 36 37 38 38 36 34 35 39 43 41 41 54 68

GFSFLT1_prec_cthk_030.txt.gz
RH
41 44 54 51 44 36 34 32 27 22 22 18 19 21 21 20 22 21 19 22 24 25 27 28 29 30 29 27 28 29 39 36 40
37 39 49 49 44 36 30 31 26 20 19 16 16 17 18 16 18 18 15 18 19 22 23 25 29 28 27 26 27 25 31 38 35
34 37 43 47 45 36 30 29 27 21 18 14 12 13 14 13 12 12 12 13 17 19 21 21 30 25 26 27 26 25 26 33 34
33 36 43 46 47 35 32 30 32 22 20 17 14 11 9 10 13 14 14 17 17 20 23 26 26 31 28 28 28 24 23 26 33
31 35 42 44 44 36 37 30 34 27 23 22 20 20 18 16 15 16 17 18 18 19 22 24 28 32 34 30 26 24 23 19 26
29 33 36 42 45 38 33 28 32 30 31 29 31 33 32 29 25 23 23 21 20 21 22 25 25 27 29 27 24 22 22 21 19
25 28 34 38 41 44 38 31 30 32 35 39 41 41 40 37 35 33 31 30 26 25 25 25 26 25 26 29 28 26 22 22 21
29 30 35 41 44 47 47 36 30 33 39 41 44 44 44 43 44 43 39 39 37 34 30 28 27 26 28 31 31 31 29 22 21
27 31 35 38 41 48 49 49 33 30 33 38 42 42 39 41 41 44 48 47 43 40 36 35 34 28 29 30 33 35 36 34 24
25 27 30 32 36 38 38 41 34 30 31 33 39 39 37 37 38 39 42 45 47 44 41 38 35 34 32 31 33 35 38 39 37
21 24 25 25 26 29 29 33 36 32 33 35 33 36 37 39 39 38 40 40 43 47 46 41 41 37 36 35 34 35 37 40 42
19 19 19 21 22 23 24 26 33 34 33 32 31 31 33 34 36 38 38 38 37 42 49 48 45 42 40 38 37 41 42 45 48
28 27 24 22 21 19 19 21 26 28 30 30 34 35 35 35 34 34 35 38 38 37 44 49 48 41 38 42 43 46 48 52 56
31 26 24 22 19 17 17 18 20 22 23 24 24 27 29 33 35 35 33 38 42 40 43 46 45 46 48 45 44 46 49 53 56
35 32 29 25 22 19 19 17 15 14 14 17 20 22 24 25 28 34 36 39 41 39 41 44 44 45 47 48 48 47 48 49 50
42 40 36 34 28 26 25 22 18 15 15 15 14 17 17 19 22 25 33 40 39 37 38 45 46 46 48 52 55 52 53 53 52
47 53 43 34 32 33 35 29 26 23 20 18 17 17 18 18 20 23 27 35 40 43 44 44 46 48 49 50 50 50 49 48 49
49 49 45 40 40 41 37 32 29 26 23 23 23 22 22 22 25 29 32 35 37 43 45 46 45 47 50 50 51 53 52 53 54
43 40 38 43 46 43 38 33 30 29 24 25 27 28 28 29 30 32 33 36 39 41 46 50 50 50 51 52 48 45 43 44 48
46 42 37 35 41 41 40 38 37 33 30 29 31 32 34 33 35 39 41 41 44 47 46 46 46 44 40 38 37 36 36 38 39

GFSFLT1_prec_cthk_033.txt.gz
RH
49 52 42 40 46 43 40 31 26 23 23 23 22 21 19 18 21 21 22 21 20 23 25 24 25 27 29 25 29 27 29 33 35
49 48 46 43 43 45 40 32 25 21 19 21 21 20 19 19 18 18 17 16 18 20 21 23 24 28 28 28 28 28 24 30 33
42 46 43 42 42 46 39 31 24 22 18 19 19 20 18 16 13 13 14 15 15 16 17 22 23 23 25 26 27 26 25 24 30
35 38 43 39 43 46 46 31 25 23 19 17 18 17 15 13 12 11 14 16 17 19 21 22 24 24 27 27 29 30 28 22 25
34 37 41 38 39 45 48 31 25 25 19 14 13 14 14 14 13 14 16 18 18 19 18 21 24 25 30 31 30 29 27 22 18
28 35 41 40 41 45 47 32 24 27 19 17 12 14 16 16 17 19 18 19 19 19 19 18 20 25 25 24 26 26 25 23 19
21 29 41 43 42 43 44 33 22 28 29 25 23 23 23 22 20 21 22 22 24 23 21 21 22 22 26 28 28 27 27 24 22
24 28 36 42 39 38 41 42 28 29 33 34 31 29 32 31 29 28 27 27 27 26 26 23 23 22 22 26 28 30 31 31 26
25 29 34 41 45 42 39 41 39 23 32 36 38 37 36 38 36 39 40 39 35 32 30 28 27 23 22 25 28 31 34 36 36
26 27 33 41 46 48 44 46 44 41 28 32 37 38 42 40 40 41 39 40 42 41 38 36 34 32 27 27 29 32 36 38 40
26 27 28 32 36 39 43 47 49 48 36 31 31 35 39 42 41 41 39 40 41 43 45 45 41 38 34 31 30 33 38 42 43
27 29 29 28 30 33 37 40 44 50 49 36 30 33 36 37 37 39 38 38 38 41 42 44 48 44 41 38 36 37 42 48 49
27 29 29 27 27 28 31 33 32 32 37 42 37 32 32 34 37 41 39 37 37 38 41 43 42 48 48 43 38 41 46 52 54
31 27 27 27 28 28 30 31 32 32 32 30 32 36 37 37 36 37 38 39 38 39 40 43 45 43 45 47 47 48 51 54 54
39 32 30 25 20 21 24 23 25 26 25 24 26 30 34 34 33 33 34 36 39 41 42 41 45 44 43 46 46 50 52 53 56
47 40 34 31 26 24 25 23 20 18 17 20 21 21 21 26 30 29 30 31 33 37 42 46 49 47 45 45 47 49 53 52 53
51 44 39 35 32 36 36 31 27 21 18 16 16 17 16 16 18 21 23 23 25 29 34 43 48 45 45 42 44 46 47 48 49
47 42 38 37 37 42 39 37 37 30 24 22 20 20 20 20 19 19 21 24 27 30 35 40 45 48 48 47 46 46 47 48 49
42 40 33 27 29 40 40 37 35 33 30 29 29 28 27 26 25 25 26 26 31 34 38 46 48 46 49 52 50 49 51 52 50
43 37 36 37 36 37 39 38 37 34 32 29 33 35 32 31 32 31 33 34 34 34 37 40 45 48 49 49 49 49 45 44 42

GFSFLT1_prec_cthk_036.txt.gz
RH
42 44 48 53 47 40 35 35 32 30 26 25 25 27 24 22 20 20 21 23 24 26 27 26 27 29 29 28 30 30 33 38 39
48 44 47 48 48 45 42 33 29 28 25 25 23 23 23 22 20 20 19 18 19 22 23 24 27 29 30 29 27 28 29 33 37
36 44 46 48 47 48 45 36 29 26 24 21 22 22 23 22 22 19 17 17 17 16 16 18 22 26 29 31 30 29 27 29 33
32 43 48 46 45 48 47 37 33 23 22 22 21 21 20 22 21 19 17 15 14 14 15 17 19 24 26 28 29 30 31 28 28
30 39 42 39 40 46 49 39 35 23 20 21 18 16 17 18 18 18 17 15 16 18 18 19 22 24 25 25 29 31 32 31 28
27 34 38 34 42 48 47 42 36 25 22 20 16 15 15 16 17 17 17 16 17 19 20 20 23 25 25 26 29 30 29 27 26
24 30 32 34 44 43 46 50 37 24 23 19 18 14 13 15 17 19 19 20 20 20 19 19 19 21 23 24 24 27 27 27 27
26 29 34 38 39 39 45 51 40 28 25 20 18 19 16 16 18 19 21 23 25 24 23 22 20 21 23 24 25 28 30 31 29
24 26 34 37 40 38 43 46 43 33 28 28 25 25 26 24 22 24 25 25 26 28 27 24 23 20 19 20 22 29 33 35 36
25 26 26 30 33 35 39 42 44 39 28 32 33 32 34 31 33 34 37 36 35 32 31 29 27 24 20 21 24 27 31 34 37
27 28 32 33 35 37 43 45 46 48 43 36 34 44 45 44 41 44 42 41 40 41 42 42 38 35 31 26 27 30 33 37 39
32 30 33 34 35 36 40 43 44 49 50 43 36 42 44 45 43 45 44 41 41 42 43 43 45 45 43 40 36 36 39 41 43
37 32 31 33 34 34 35 43 45 47 48 48 34 34 34 38 44 45 40 36 37 39 39 39 42 42 43 45 47 47 45 45 47
42 37 33 31 30 32 32 32 36 40 41 42 45 39 34 38 42 41 40 40 39 37 38 39 40 42 44 45 46 48 49 46 47
44 42 39 37 34 32 32 34 33 33 37 41 42 41 40 37 37 40 42 43 43 43 42 41 41 41 41 44 47 50 49 52 51
45 43 44 43 39 37 35 34 35 35 34 34 34 35 36 37 40 40 41 41 39 41 43 45 44 42 43 44 46 49 46 46 50
49 45 42 42 41 38 35 34 35 34 33 30 29 28 28 29 30 32 35 37 36 35 34 34 36 38 41 45 48 51 47 45 45
54 44 44 40 39 36 32 26 24 26 29 30 28 23 20 17 17 19 21 26 28 28 27 27 28 31 34 39 45 48 48 51 50
59 48 43 40 41 42 39 32 25 25 28 28 27 26 24 21 21 21 23 26 26 27 26 26 30 32 34 38 42 46 50 53 52
57 53 42 43 44 42 38 34 28 26 29 29 26 27 25 26 27 28 29 29 28 28 29 32 33 36 38 40 41 51 54 54 53